GFSSE_850_thetae_096.txt.gz
Theta_e
335 330 331 337 336 335 334 334 333 332 329 328 326 325 326 332 336 337 337 334 333 329 325 324 329 332 329 332 333 332 332 331 330 329 331 329 329 328 325 323 325 327 328
326 325 326 333 337 336 336 335 334 333 330 328 327 325 324 327 330 333 335 334 331 328 324 323 330 332 332 332 332 330 328 329 329 330 331 332 330 329 328 328 328 327 327
322 322 323 329 336 336 336 336 335 334 332 329 327 326 325 324 327 331 331 329 325 324 322 322 329 332 332 331 331 328 327 329 330 330 330 331 330 330 329 328 325 325 326
321 321 322 324 330 336 336 336 336 335 334 331 328 327 326 325 325 326 325 323 320 318 321 322 328 331 331 330 330 328 329 329 330 330 330 330 329 329 328 328 327 326 325
320 320 321 322 323 328 336 335 335 336 336 333 330 328 326 325 326 324 322 317 315 315 317 332 332 328 329 328 328 328 329 328 328 329 329 328 328 327 327 327 325 321 320
321 321 321 321 322 326 331 336 335 334 336 336 332 330 327 326 328 326 322 321 323 323 326 331 328 324 326 328 328 328 327 327 327 326 328 327 326 326 326 324 319 315 315
320 320 320 321 322 328 333 335 335 335 335 335 336 330 330 329 329 329 327 324 330 329 331 330 326 325 326 327 325 323 322 322 321 323 326 325 324 324 324 319 313 311 310
321 320 321 322 322 325 332 334 334 335 335 335 336 333 331 331 329 327 327 329 331 330 329 324 323 324 324 324 323 323 323 323 322 320 322 323 322 322 320 313 311 310 309
321 320 321 322 322 323 329 333 336 334 335 334 335 334 333 331 329 326 325 331 331 329 325 321 321 320 324 324 323 323 323 322 321 318 317 321 321 321 317 312 309 308 307
320 319 321 322 322 322 325 332 336 335 334 333 336 335 332 328 326 325 327 327 331 328 320 321 323 325 325 325 325 323 322 321 321 318 315 318 320 319 316 311 310 308 308
321 321 322 322 322 322 324 329 335 334 334 333 333 332 327 326 325 327 326 328 328 328 320 318 325 325 325 324 323 324 322 321 321 318 313 319 320 318 313 309 309 308 308
323 324 328 329 326 323 324 328 336 335 332 332 331 328 326 325 326 329 328 327 325 328 319 317 325 324 321 321 321 322 322 321 319 312 311 318 318 316 311 310 308 307 306
326 328 329 331 328 324 325 328 330 334 333 332 331 328 328 326 324 327 327 327 326 328 317 321 326 323 320 321 321 322 321 319 317 310 312 317 319 316 310 307 306 306 306
328 330 330 331 331 328 321 327 328 329 331 330 329 328 327 328 326 328 328 329 322 328 315 319 324 321 319 321 320 320 319 319 319 317 308 309 312 315 308 306 306 306 305
329 330 331 332 332 328 321 327 328 327 328 329 329 328 328 327 326 326 327 326 319 326 313 314 322 320 320 320 321 320 320 320 319 317 308 309 310 309 306 306 305 305 305
330 330 330 332 331 327 322 324 326 328 329 329 328 328 327 327 326 326 327 322 322 320 310 310 318 319 320 320 321 320 320 319 319 314 307 307 307 307 307 307 306 306 306
330 330 330 331 330 328 321 324 327 327 329 328 328 328 328 327 326 327 327 323 323 313 308 309 314 319 319 320 321 320 320 319 319 313 307 307 307 307 308 308 308 308 308
330 330 331 330 329 327 322 326 327 329 328 328 329 328 327 327 326 326 322 324 313 307 307 308 313 317 320 319 319 320 320 319 318 314 308 308 308 308 309 309 310 310 310
329 330 330 330 329 327 321 324 328 328 327 328 328 328 328 328 326 324 320 321 310 306 306 307 313 319 320 319 319 319 319 319 318 313 308 308 309 309 311 310 310 310 310
329 330 330 330 328 326 319 323 326 325 326 327 328 328 328 328 327 325 320 324 310 306 307 307 318 318 318 318 318 319 319 319 318 316 314 310 310 311 311 311 311 311 311
330 330 330 329 328 326 320 325 323 324 326 327 328 327 328 328 327 327 322 322 307 308 311 309 317 315 315 318 318 318 318 318 318 318 317 315 314 311 311 311 311 312 312
329 330 329 329 328 326 320 322 322 323 324 324 326 326 327 328 327 327 323 322 310 316 314 316 312 316 317 318 317 317 318 318 318 318 317 317 318 317 315 316 315 315 316
330 329 329 328 327 324 319 322 322 324 322 322 322 322 324 327 327 327 325 323 316 320 317 318 318 317 317 317 311 315 317 318 318 318 318 317 317 317 316 316 317 317 317
330 329 329 328 327 323 319 322 321 321 322 321 321 322 324 324 326 326 326 322 318 319 318 318 316 316 315 313 314 315 316 316 318 318 317 317 316 317 317 317 317 317 317
329 329 329 328 327 320 319 322 321 320 321 321 321 320 323 324 325 326 325 321 317 319 319 317 316 316 313 313 313 315 316 315 315 316 316 317 317 317 317 317 316 316 316
329 329 328 327 326 319 320 323 320 319 320 320 319 319 319 320 319 320 323 317 319 315 318 317 316 314 314 314 315 316 315 315 319 319 319 318 317 317 318 317 317 318 319

GFSSE_850_thetae_099.txt.gz
Theta_e
333 327 333 336 334 333 332 331 329 327 326 331 330 329 334 337 337 337 334 329 328 327 326 327 328 330 332 333 334 334 332 330 330 330 326 327 328 328 329 329 329 329 330
324 322 324 334 336 333 333 332 330 328 327 327 327 326 328 335 337 338 335 332 330 327 325 326 328 328 331 332 333 333 332 333 333 331 330 329 326 324 324 325 326 327 328
322 321 321 327 336 335 334 333 332 330 328 328 326 325 328 330 334 335 334 334 332 329 324 328 331 329 330 332 331 329 328 330 331 330 330 331 329 327 327 327 327 326 326
320 320 321 321 326 335 336 335 334 332 330 328 327 326 327 330 330 331 333 332 330 327 326 329 330 334 332 331 330 328 326 329 331 330 332 330 330 328 327 325 325 326 327
320 321 320 320 321 326 335 336 335 334 333 330 327 327 326 327 332 328 329 327 328 328 328 327 329 331 331 330 329 327 329 330 329 330 329 329 328 327 326 325 321 318 323
322 321 321 321 321 323 330 335 336 336 335 333 330 328 327 326 328 328 325 322 327 327 327 326 328 331 330 329 329 329 330 330 330 329 328 328 328 327 325 324 319 316 315
321 321 321 322 322 322 326 333 335 335 335 335 333 330 327 326 326 325 322 322 324 324 325 327 329 329 329 329 328 328 328 328 326 327 327 327 326 324 323 320 314 314 313
319 319 319 321 322 323 325 331 334 336 336 335 335 332 329 326 327 325 327 329 325 324 321 328 328 327 328 328 327 327 326 326 325 325 326 326 325 322 321 314 310 310 309
319 320 320 320 321 323 325 330 335 336 336 336 336 335 331 329 327 329 328 328 327 325 323 329 326 326 327 327 326 323 322 320 319 323 325 323 322 321 312 310 311 309 308
320 320 320 322 322 322 322 329 335 335 336 338 336 335 332 330 330 331 327 327 329 325 327 326 325 326 327 324 322 323 322 322 321 321 322 319 320 318 316 315 311 312 308
321 320 320 320 321 321 321 324 334 335 335 335 335 336 332 331 332 328 327 325 328 324 327 323 324 325 325 323 323 322 322 321 319 317 317 320 319 318 316 318 313 310 311
320 318 321 323 325 325 322 323 331 336 334 335 334 331 331 332 327 325 325 325 327 322 325 320 322 325 324 324 324 323 321 321 319 315 314 319 320 319 317 312 310 313 310
321 320 323 325 327 325 323 322 324 332 332 332 332 332 331 328 326 325 328 327 330 327 324 321 323 325 325 325 324 324 321 321 318 314 315 319 318 317 317 311 314 307 306
322 323 325 327 328 328 328 324 324 328 329 330 330 330 329 326 326 324 327 327 324 325 322 323 325 325 325 323 321 322 321 318 313 310 312 320 320 317 313 312 308 307 306
323 325 326 329 330 330 329 326 323 323 327 329 331 331 329 328 327 325 327 326 323 325 322 323 326 324 321 321 321 321 320 319 318 310 312 318 319 316 312 311 306 306 306
325 326 328 330 331 331 330 327 323 323 327 327 329 329 328 327 327 326 327 326 326 326 322 323 325 320 320 321 320 320 319 319 319 314 311 316 313 311 307 307 307 306 306
326 327 328 330 331 331 329 326 321 324 326 327 327 329 328 328 327 326 326 326 326 326 321 323 324 320 319 320 320 320 320 319 318 313 311 311 309 307 307 307 306 306 306
326 326 328 330 331 330 328 325 321 322 325 329 327 328 328 328 327 327 326 326 324 324 318 323 324 321 319 320 320 320 320 319 318 312 310 309 307 307 308 308 308 308 308
325 327 328 330 331 330 327 323 323 324 326 325 328 328 328 328 327 327 326 326 321 325 317 319 324 321 318 320 320 320 319 319 318 312 308 308 307 307 308 309 310 310 310
323 327 329 330 331 329 326 323 323 327 326 326 326 327 327 328 327 327 325 322 325 315 313 314 322 319 319 320 320 320 319 318 317 311 308 309 308 308 309 310 310 310 310
321 325 329 330 329 328 326 322 320 323 326 326 326 327 327 328 327 326 326 323 320 311 310 311 318 317 319 319 319 319 318 318 318 314 310 310 309 311 312 311 311 311 311
321 327 330 330 329 328 326 323 318 318 323 324 325 328 327 327 327 327 324 322 316 309 308 308 318 318 319 319 319 319 318 317 318 318 318 314 311 311 311 311 311 311 311
324 327 329 329 329 328 325 321 318 321 323 324 326 327 325 326 327 327 325 321 321 307 308 308 315 319 318 318 319 318 318 318 318 318 318 317 316 316 315 314 314 315 316
325 329 329 329 328 327 325 321 319 321 321 322 322 325 326 325 326 325 327 324 322 307 307 307 317 318 317 318 318 317 311 315 317 317 317 317 317 317 316 316 316 316 317
328 329 329 329 328 327 325 320 319 322 321 322 321 323 322 323 324 327 326 326 323 309 309 307 317 316 315 317 318 315 315 316 315 316 316 315 317 316 316 317 317 317 317
328 329 329 328 328 327 325 319 319 321 320 320 319 320 321 322 323 324 326 326 321 312 312 314 312 315 315 316 315 311 314 315 315 315 315 316 316 317 317 317 318 317 317

GFSSE_850_thetae_102.txt.gz
Theta_e
324 327 331 331 332 332 334 331 329 332 335 335 335 337 338 337 335 328 328 329 327 327 326 325 328 330 332 333 334 334 333 334 330 329 331 332 332 331 330 330 330 329 330
322 324 329 333 333 332 332 331 329 328 333 333 333 334 336 336 335 331 331 328 328 328 328 327 330 331 331 332 333 332 330 330 332 329 329 331 330 328 328 328 327 327 328
320 320 322 328 333 333 332 331 329 328 328 330 330 331 334 334 336 337 333 330 328 327 326 327 329 330 331 333 333 333 332 332 331 330 329 328 330 323 324 325 326 327 327
319 319 321 325 332 334 333 332 331 329 328 328 327 327 330 334 336 335 334 332 332 328 326 326 328 329 330 331 330 329 328 329 329 330 328 330 327 326 325 327 327 326 325
319 320 321 322 327 333 335 334 333 331 329 328 327 326 328 332 334 334 333 333 331 329 328 330 329 329 330 330 330 328 326 328 330 329 331 334 329 328 326 326 327 325 325
320 320 320 320 322 331 335 335 334 333 332 330 328 327 327 329 332 333 332 327 330 328 328 327 328 329 330 330 329 327 327 329 329 329 329 329 327 327 323 320 321 325 325
320 320 320 320 321 325 333 335 335 335 334 333 330 328 327 329 330 329 329 327 325 327 325 326 327 329 330 330 328 328 329 329 329 328 328 327 326 325 323 321 316 315 317
320 319 320 321 321 323 327 333 335 335 335 334 333 330 328 328 328 328 326 324 321 324 323 320 327 329 330 329 329 329 330 329 328 328 327 327 326 324 323 316 313 314 311
323 320 319 320 320 322 325 328 331 333 334 335 335 332 330 328 328 326 323 322 327 328 326 322 328 329 328 328 328 329 329 328 327 326 326 325 325 322 317 311 313 311 309
324 321 320 320 320 322 323 327 330 332 334 334 334 334 331 328 327 327 324 328 328 326 326 327 329 329 326 327 328 328 327 326 325 325 325 324 324 320 311 317 315 308 311
323 320 321 321 320 321 322 327 336 335 336 336 335 334 334 332 329 328 329 329 328 327 325 325 327 323 328 327 327 325 322 320 321 324 324 322 321 318 314 312 312 310 310
321 319 319 320 320 321 321 322 332 336 338 335 335 334 333 332 329 329 331 331 329 327 327 325 323 327 327 327 323 322 322 321 319 320 321 321 320 320 317 317 311 315 312
322 320 319 319 322 323 325 323 325 332 332 335 334 333 331 332 330 330 330 327 327 327 326 324 320 322 326 324 323 323 321 320 319 318 320 319 319 320 319 317 311 316 313
324 321 320 320 324 326 326 323 323 329 325 332 333 331 334 328 329 329 327 325 325 326 327 323 320 320 324 323 322 322 321 321 319 316 317 320 320 320 318 309 312 313 308
326 324 322 322 325 327 327 327 325 323 323 325 328 328 330 330 328 328 326 325 327 326 326 324 322 326 324 323 324 324 321 320 314 314 318 319 319 320 315 316 313 311 309
328 327 324 323 326 328 329 328 327 325 322 324 326 328 328 328 329 326 327 325 327 327 325 321 322 325 325 325 324 322 321 318 313 314 315 318 319 319 316 317 315 310 306
323 329 327 324 327 329 329 329 328 326 324 324 325 329 330 330 329 328 326 326 325 326 319 321 322 325 325 322 321 322 320 318 316 313 315 316 319 318 315 314 312 308 306
322 325 328 326 327 329 330 330 327 325 325 324 325 326 328 329 328 327 327 326 324 324 318 321 323 325 322 320 321 320 319 319 317 314 313 314 313 315 315 314 311 307 306
318 321 327 327 327 329 330 329 327 325 324 323 326 327 327 329 328 327 327 326 326 324 320 320 323 324 321 320 320 320 319 319 317 314 311 312 311 310 310 312 308 307 307
318 318 325 328 327 329 330 329 326 324 324 323 325 325 328 328 328 328 327 326 326 326 324 320 323 321 320 320 320 319 319 318 317 313 310 310 309 309 309 308 308 309 309
317 317 321 327 328 329 330 329 326 324 325 324 324 324 327 328 327 327 326 326 324 323 319 316 322 320 319 320 320 319 318 317 317 314 311 310 309 308 308 309 310 310 310
318 318 320 325 328 329 330 329 327 324 325 323 324 324 325 326 325 325 326 324 324 319 316 319 320 321 319 320 320 319 317 317 316 315 312 311 310 309 310 310 310 311 310
319 318 318 324 328 329 330 328 326 322 321 321 323 323 324 324 324 326 326 325 323 322 315 314 320 321 319 320 320 319 317 317 317 316 313 314 313 310 310 310 311 311 311
320 320 318 326 328 330 329 328 326 322 319 319 321 323 324 324 325 327 325 325 324 320 314 310 315 321 319 319 319 318 318 317 317 316 317 317 317 316 316 314 312 314 315
321 321 321 326 330 330 329 328 326 321 318 320 321 323 323 326 324 326 324 325 324 320 313 310 315 319 318 319 319 318 315 313 314 314 315 316 317 316 315 316 316 316 316
321 322 324 328 330 329 328 327 325 320 318 320 321 321 321 322 324 323 325 326 323 320 310 312 314 317 318 319 319 318 318 313 314 314 315 315 315 314 314 314 315 317 317

GFSSE_850_thetae_105.txt.gz
Theta_e
321 322 322 322 326 329 332 335 332 331 335 337 339 339 338 338 336 328 327 329 328 326 326 326 328 331 332 333 334 333 332 330 331 332 332 332 331 330 330 331 331 331 331
319 319 322 325 328 330 332 332 330 332 335 337 338 339 338 337 336 328 329 329 328 327 326 326 328 331 332 333 334 333 333 329 330 330 332 333 332 331 330 329 329 330 330
319 319 321 325 329 331 332 331 329 329 334 335 336 338 338 336 334 328 329 329 327 327 327 329 330 330 331 332 333 332 330 330 329 330 331 332 331 329 328 328 328 328 328
318 317 318 324 330 332 331 331 329 328 329 332 332 335 337 335 332 330 330 329 328 328 328 329 330 330 330 332 332 331 331 330 330 330 330 331 331 327 325 326 327 327 326
318 318 319 323 326 332 332 332 331 330 328 328 328 331 333 333 333 334 331 330 330 330 328 328 329 329 330 332 331 330 328 329 329 329 326 328 328 326 326 327 327 326 327
318 319 320 321 322 327 333 333 332 332 330 328 328 328 330 333 336 333 332 331 332 330 327 325 326 327 329 330 330 329 327 328 330 328 328 330 329 328 327 326 326 325 327
318 319 320 320 323 326 330 333 334 333 332 329 328 328 330 333 333 333 332 332 330 328 327 323 324 326 331 330 329 328 327 329 329 330 331 328 328 326 322 323 325 326 326
319 319 320 322 323 325 329 331 333 334 333 331 329 329 330 331 333 332 331 330 328 327 325 324 321 323 328 329 327 327 328 329 329 328 328 327 326 323 322 319 320 324 325
320 320 320 321 322 324 327 331 331 334 334 333 331 330 330 330 331 332 331 330 327 326 324 326 324 325 327 329 327 326 329 329 328 328 327 327 326 324 323 320 316 313 315
321 321 322 321 321 322 324 327 330 330 333 334 334 332 330 330 330 331 331 327 326 324 329 329 325 325 327 329 328 327 328 329 328 327 327 326 325 323 320 321 313 309 310
322 322 323 322 321 321 323 324 326 331 331 332 335 335 332 330 330 329 328 325 323 328 328 327 324 324 327 328 328 327 329 328 327 326 325 325 325 321 320 312 316 309 308
323 322 322 323 322 323 323 324 325 332 336 338 333 333 333 333 331 330 328 325 327 329 328 326 327 327 327 326 328 328 327 327 325 324 324 324 323 322 320 312 315 310 310
324 322 321 322 324 324 322 322 323 334 336 335 335 334 333 333 332 330 329 327 329 330 328 326 326 327 325 324 327 327 324 321 321 323 323 322 321 321 320 317 315 314 312
326 325 322 321 323 323 323 324 324 323 330 337 335 333 333 334 332 331 329 328 330 329 328 327 326 325 324 322 326 323 321 321 319 321 321 320 320 321 321 319 317 315 313
327 327 325 322 321 322 324 326 325 324 326 333 331 331 333 331 331 331 329 327 328 326 326 327 327 325 321 326 324 322 321 320 320 320 320 318 318 320 320 319 319 315 313
326 327 328 325 322 321 325 327 326 327 326 330 325 329 331 330 330 326 327 328 327 325 326 327 326 323 319 325 322 322 321 321 319 318 319 319 319 318 319 319 320 317 312
320 323 327 328 325 322 325 328 328 328 327 325 323 324 327 325 328 327 328 327 326 325 326 326 327 324 319 324 322 323 322 320 315 316 318 319 318 318 319 319 319 318 317
319 319 319 325 328 324 325 328 329 329 328 326 323 324 327 327 327 328 328 327 327 325 324 326 325 320 321 323 324 324 322 319 315 314 317 316 318 318 318 318 318 318 315
318 319 318 319 327 327 325 328 329 329 328 326 324 324 326 328 329 329 328 327 326 325 324 324 324 321 316 322 323 321 321 318 317 315 316 315 318 317 317 317 317 313 309
317 318 318 317 321 329 327 329 330 330 328 326 324 324 325 326 328 329 328 327 327 325 324 320 320 318 318 323 321 321 319 318 317 316 313 317 316 316 316 314 312 309 307
316 317 319 318 319 328 328 329 330 330 328 326 324 322 326 328 327 328 327 327 327 326 324 320 321 319 321 320 321 320 319 318 317 316 314 316 315 315 313 312 310 309 309
317 317 318 318 318 325 329 329 330 329 328 327 325 323 326 326 326 327 327 326 326 326 324 320 318 320 321 320 320 320 317 317 317 316 315 315 314 314 312 309 312 310 310
318 317 318 319 319 324 329 330 330 329 327 326 327 325 322 323 325 326 326 325 326 326 322 321 319 321 319 319 319 319 317 318 317 316 316 314 312 312 311 310 310 310 310
318 317 318 320 319 324 329 329 330 329 328 326 323 325 322 323 324 324 324 324 324 321 320 320 320 321 317 318 319 319 319 318 318 316 315 311 311 311 310 311 310 311 310
319 317 317 320 321 322 328 329 330 328 328 324 321 321 320 322 325 325 325 324 324 321 321 320 319 319 317 316 318 319 319 318 317 315 316 315 313 314 312 310 311 311 311
320 319 319 321 323 323 327 329 329 328 327 324 319 319 321 322 323 322 323 324 324 323 321 319 319 318 317 316 319 319 319 318 316 314 313 313 315 314 314 313 315 315 314

GFSSE_850_thetae_108.txt.gz
Theta_e
327 321 320 321 321 324 329 333 336 334 331 332 336 338 335 335 333 329 328 329 330 332 332 333 334 333 333 333 333 332 330 331 332 333 334 334 332 332 332 333 334 334 332
321 319 318 320 322 326 330 332 333 330 330 335 338 338 336 336 333 329 329 330 331 330 329 329 331 332 333 334 333 332 330 330 332 332 333 332 332 330 332 334 335 332 332
319 318 319 320 323 329 332 333 331 329 333 337 338 339 337 336 334 329 329 330 329 327 326 327 329 331 332 333 333 332 330 329 330 331 332 336 332 331 330 330 329 331 331
318 318 318 318 323 330 332 332 330 329 333 336 337 339 338 337 334 330 330 329 328 327 327 328 328 331 332 333 333 332 330 329 329 330 334 334 332 329 329 328 329 328 328
318 317 317 319 323 328 331 331 330 329 331 335 336 338 338 337 335 330 331 329 330 334 331 332 330 331 332 333 332 331 331 329 329 331 333 332 333 328 327 327 328 327 329
318 317 318 319 322 326 331 331 331 330 329 329 331 334 336 336 334 330 331 330 330 331 330 328 329 329 330 332 331 331 328 328 328 331 332 331 333 327 327 328 329 329 328
318 318 318 320 322 326 329 332 332 331 330 329 329 330 334 335 333 332 333 331 330 330 328 327 325 329 330 331 330 329 327 327 332 332 333 332 331 329 328 328 327 327 328
318 318 319 320 321 324 328 332 333 332 332 330 329 329 331 332 333 334 332 332 331 330 328 327 324 328 330 330 329 328 326 329 331 332 332 332 329 327 325 326 327 327 328
318 319 319 320 322 325 327 331 332 333 333 332 331 330 329 331 333 333 333 332 331 328 328 329 324 328 330 330 329 327 326 327 333 331 331 330 328 325 322 324 326 326 326
319 319 320 320 321 324 326 329 332 333 333 333 332 331 331 332 332 333 332 331 331 328 328 326 326 326 327 331 328 327 327 329 331 330 330 329 327 327 324 321 320 323 324
321 320 320 320 322 323 325 327 329 332 334 334 333 332 331 332 333 332 331 332 332 328 326 327 329 327 326 328 328 327 328 331 332 331 329 328 327 326 324 322 316 314 315
323 322 322 321 322 323 326 332 328 327 331 336 336 335 332 333 335 335 332 331 330 326 325 328 330 329 326 327 326 327 329 331 331 330 327 327 325 324 321 318 313 313 313
336 335 327 323 322 323 330 336 333 326 334 335 334 334 335 334 333 331 332 330 328 325 327 328 328 327 325 327 326 326 329 327 329 328 326 324 324 323 320 318 318 315 317
336 337 332 325 323 323 336 331 337 324 333 332 331 335 334 332 332 332 332 332 331 330 329 329 328 328 327 327 326 324 326 327 326 326 325 323 323 321 320 319 318 319 319
335 338 338 326 325 324 326 330 334 333 327 325 332 334 334 333 333 333 333 331 329 328 329 329 328 328 327 327 325 323 326 325 325 324 324 322 321 320 319 317 319 319 319
332 336 338 328 327 326 325 322 323 325 331 325 326 333 331 331 333 332 332 331 329 328 328 329 328 328 326 326 322 323 325 325 324 323 323 320 320 320 320 318 319 319 318
329 332 335 328 328 328 326 323 323 325 326 326 326 331 331 331 327 333 332 331 328 330 328 327 327 327 327 324 321 324 324 324 324 322 321 320 319 320 318 319 319 319 317
326 328 331 328 324 329 329 327 323 325 327 328 327 326 325 327 329 329 327 329 329 329 327 326 326 326 327 322 324 323 323 324 322 320 322 322 321 321 318 319 318 318 317
322 324 327 329 319 324 332 331 325 325 327 328 328 327 323 323 327 325 325 328 328 328 326 326 324 324 326 321 323 323 323 323 321 319 320 320 321 320 319 318 318 318 317
319 320 322 326 321 324 333 331 327 325 328 329 329 328 325 323 325 327 327 329 329 327 326 325 325 324 324 321 323 323 323 322 322 320 319 319 320 319 318 318 317 317 312
318 317 317 318 320 326 328 328 328 326 329 329 329 328 325 323 324 326 328 328 328 327 327 324 322 321 321 322 320 322 322 321 321 320 319 318 319 318 319 319 318 317 312
321 323 319 319 323 327 325 325 328 327 329 330 330 328 325 322 322 326 327 327 327 326 326 323 323 322 320 315 319 321 320 320 320 320 319 318 319 319 320 319 318 317 317
323 323 323 325 327 329 329 327 330 328 329 330 330 328 327 324 324 327 326 327 327 325 326 324 323 322 318 315 320 320 318 319 319 319 319 318 317 318 318 318 318 318 318
324 323 323 326 328 329 329 328 330 329 329 330 329 328 328 325 324 325 326 326 325 325 325 325 324 320 317 318 321 321 320 319 320 320 319 317 317 318 318 318 318 318 317
323 326 324 326 328 327 329 329 331 330 330 329 328 327 325 328 324 324 324 324 324 324 324 324 320 319 318 320 320 320 320 319 320 319 319 317 317 317 317 317 317 317 317
322 324 327 327 327 323 325 331 329 331 331 328 327 326 322 328 325 322 324 324 323 323 324 322 320 319 319 320 319 320 319 319 319 319 318 316 316 316 317 317 317 317 317

GFSSE_850_thetae_111.txt.gz
Theta_e
340 333 320 320 320 322 327 333 336 337 336 336 336 338 335 333 333 330 327 328 329 330 332 333 335 335 335 334 333 332 329 332 333 334 334 334 332 331 331 333 336 334 333
338 320 319 319 320 323 329 332 334 336 333 332 335 338 336 334 334 329 328 329 330 331 332 333 334 334 333 333 333 331 330 331 332 333 334 332 332 332 333 335 336 332 332
335 320 320 320 320 323 329 331 333 331 330 333 336 338 337 335 334 329 329 330 331 335 331 331 332 333 333 333 332 331 329 329 331 332 332 336 334 331 333 334 332 332 333
326 321 320 318 318 323 329 331 331 329 332 336 338 338 337 336 335 330 330 331 334 336 328 328 330 333 333 333 332 332 328 328 330 331 336 334 333 332 331 330 331 332 332
331 320 319 318 318 324 330 331 330 329 333 336 338 339 338 337 336 332 330 330 329 333 328 327 332 331 331 333 333 331 329 328 328 335 333 335 333 330 329 328 329 329 330
336 334 319 318 318 321 328 331 330 329 331 334 337 338 338 338 336 333 330 331 329 331 331 329 329 328 332 332 333 331 331 326 327 336 332 334 331 329 327 328 329 329 329
336 331 319 318 319 321 324 330 331 330 330 332 335 336 337 337 336 333 331 331 330 331 329 328 329 329 330 331 332 331 328 322 333 334 332 331 331 328 327 329 329 329 328
330 321 319 318 320 322 324 328 331 331 330 330 332 334 335 336 336 334 331 332 331 331 331 328 328 327 329 328 332 331 327 328 331 332 329 331 329 328 329 328 327 328 328
321 319 319 319 320 322 324 328 331 332 332 330 330 331 331 333 334 333 332 332 331 331 330 328 329 328 329 330 330 329 327 327 331 334 330 331 329 328 326 325 326 327 328
326 318 319 319 320 321 322 325 330 332 332 332 331 330 331 332 333 333 333 333 331 331 329 328 329 328 327 328 327 328 327 327 330 330 332 330 328 327 324 325 326 326 326
340 334 326 320 320 321 321 322 326 331 332 333 333 332 331 332 334 333 333 332 332 332 330 329 328 327 327 328 327 327 326 330 332 331 330 328 328 327 323 322 322 323 323
340 338 339 338 339 324 321 321 323 327 329 331 333 335 332 335 337 336 336 333 332 332 331 328 327 328 328 326 328 327 326 331 331 329 329 327 326 326 325 323 322 319 318
338 337 337 341 341 335 338 339 339 328 333 332 336 336 337 338 337 336 336 335 331 331 331 328 326 328 329 327 328 327 326 322 331 329 328 327 326 325 324 320 320 317 314
335 337 338 339 341 341 338 338 339 337 336 337 340 335 335 336 336 334 334 333 332 332 331 330 327 330 330 328 327 327 326 324 328 327 327 325 324 324 323 320 317 313 319
331 334 338 340 342 342 335 339 338 340 328 339 339 339 336 338 335 333 333 333 333 332 331 331 329 330 329 327 326 327 326 324 327 326 324 324 323 323 322 318 319 318 317
327 331 337 340 341 341 340 339 339 339 338 327 332 334 335 334 334 333 333 333 332 331 331 329 329 329 326 327 327 327 325 322 325 325 323 323 322 321 320 319 319 319 317
326 328 335 340 340 332 341 340 339 338 338 339 328 331 333 334 333 333 333 332 332 331 330 329 329 328 327 328 327 326 323 326 322 325 324 322 321 321 320 318 319 318 318
326 327 330 336 341 333 340 341 338 337 337 337 335 332 327 327 332 332 331 331 332 331 330 329 329 328 328 328 327 325 321 324 323 323 324 322 321 321 320 319 320 319 317
324 325 327 332 337 340 340 340 340 337 336 334 335 328 327 327 326 326 332 332 330 330 330 328 329 327 327 327 327 323 323 325 322 323 322 319 321 322 319 318 318 318 318
322 323 325 328 333 337 338 340 339 337 335 332 330 327 328 328 326 325 329 329 328 328 329 329 328 326 326 326 326 322 324 323 323 320 323 321 321 321 319 319 318 317 317
322 322 322 323 326 333 335 337 338 336 333 329 334 334 332 329 327 323 331 328 327 327 328 328 326 326 325 324 324 324 322 322 322 320 321 321 320 319 319 321 319 318 316
324 324 325 325 325 328 333 334 337 335 335 333 329 333 332 331 328 324 328 328 327 328 328 327 324 326 324 324 324 322 322 322 321 319 321 320 318 319 321 319 319 318 318
324 324 325 326 326 328 332 334 335 333 334 334 328 329 330 330 328 329 328 327 328 328 326 326 326 325 322 323 323 321 321 321 321 320 318 320 320 318 319 320 319 319 320
324 325 327 327 327 329 332 334 331 332 331 332 331 330 331 330 328 327 326 326 328 328 327 325 326 324 322 322 322 320 320 320 320 320 319 320 319 318 319 318 319 318 318
322 324 327 329 328 329 331 333 332 331 331 332 331 330 330 330 327 329 326 325 330 327 326 324 324 323 321 321 321 318 319 320 320 319 320 320 320 318 319 320 318 318 319
322 323 325 328 329 329 330 332 332 330 332 333 333 332 332 329 328 327 326 326 326 326 325 325 325 323 322 320 319 317 320 320 319 319 320 319 318 319 317 318 319 319 318

GFSSE_850_thetae_114.txt.gz
Theta_e
342 333 321 320 321 322 323 327 335 338 338 337 337 338 336 334 335 329 326 327 328 329 331 332 334 335 334 335 336 334 332 335 336 335 334 333 332 332 333 334 335 333 334
340 320 320 320 320 320 324 328 332 335 336 335 336 337 336 334 335 330 327 328 329 335 339 333 334 335 334 334 332 331 330 332 333 333 333 331 331 332 334 335 332 332 333
322 322 322 319 319 322 326 329 332 335 333 332 333 336 337 335 335 331 327 328 329 331 333 332 333 333 333 332 332 330 330 331 332 332 332 332 332 332 334 332 331 332 332
321 322 320 318 318 324 328 330 332 331 329 332 334 337 337 335 336 333 328 328 329 332 329 329 333 331 332 332 332 331 328 330 331 335 335 332 332 333 332 331 331 332 332
322 322 320 319 316 322 328 330 330 329 331 335 337 338 338 336 336 334 330 329 329 330 327 327 333 331 333 332 332 331 328 329 331 334 333 332 331 331 330 330 331 332 332
322 322 320 319 316 320 326 330 330 329 331 335 337 338 338 337 336 334 331 330 330 330 329 328 329 329 326 332 332 331 329 329 333 334 331 331 329 329 329 329 330 330 330
336 322 320 319 317 318 322 328 331 330 330 332 336 337 338 337 336 335 333 331 331 332 331 331 330 329 328 331 332 332 329 329 333 332 333 330 331 327 328 328 329 330 329
328 323 320 319 317 317 320 324 329 331 330 330 332 335 337 337 336 335 333 331 331 332 331 331 330 328 328 330 331 331 327 328 332 333 333 329 329 327 327 328 329 328 328
332 323 320 319 318 318 319 322 326 328 331 331 330 330 333 335 334 334 334 332 332 331 331 330 329 328 328 328 330 330 327 328 331 333 332 328 329 328 328 328 327 327 327
332 322 320 319 319 319 319 322 324 326 329 331 331 330 331 332 333 333 333 332 332 331 331 331 329 330 328 325 326 327 326 328 328 332 329 329 328 329 328 325 325 326 327
336 323 320 319 319 319 320 322 324 325 326 329 331 332 331 331 332 333 333 332 332 332 331 331 328 329 328 327 327 323 323 325 328 327 327 329 328 327 325 323 324 324 325
342 336 326 321 319 320 321 321 323 324 324 325 327 331 332 331 332 333 333 333 333 332 332 331 329 328 327 327 327 325 323 325 329 328 327 328 327 327 325 321 322 323 323
342 341 340 333 333 326 326 322 322 321 323 323 324 328 331 332 332 335 336 335 334 333 332 332 331 328 327 328 327 327 323 326 331 328 327 327 326 326 326 323 322 321 319
339 340 338 339 336 332 336 338 334 328 324 321 321 322 334 336 335 335 335 335 335 334 332 332 332 329 327 327 329 327 327 324 325 323 324 328 327 325 326 324 321 320 315
334 337 338 337 337 336 335 339 339 340 334 329 333 331 334 335 335 335 335 335 335 334 332 331 331 329 327 328 329 327 328 326 326 323 325 326 324 324 324 323 320 318 314
329 334 336 338 337 338 339 338 338 340 339 336 338 336 337 336 336 335 334 335 334 332 331 331 330 330 328 329 328 326 327 327 326 324 326 324 323 322 323 322 321 318 314
326 327 335 337 338 337 339 339 341 339 337 338 332 332 337 335 335 335 334 333 333 331 333 331 330 330 329 329 328 326 326 327 325 325 325 323 323 322 321 319 320 318 319
324 325 330 336 339 338 339 341 339 339 339 338 337 332 327 335 335 334 332 333 333 332 332 331 330 329 329 328 326 327 327 326 323 325 325 323 322 320 320 318 319 319 319
322 324 326 335 337 335 338 339 341 339 337 339 338 337 330 332 334 335 332 332 330 330 332 331 330 329 328 328 327 327 327 325 325 325 324 323 320 320 320 318 319 319 318
322 322 326 328 333 335 334 337 341 342 341 336 337 337 334 330 329 330 329 330 329 331 330 331 330 329 328 328 328 327 326 323 325 323 323 323 320 319 320 319 319 318 318
323 323 323 325 330 334 337 337 338 342 341 338 336 336 335 329 329 328 328 326 329 329 327 328 329 328 328 326 327 326 326 323 324 323 322 321 319 321 320 319 318 318 317
322 323 323 323 323 327 334 333 335 339 341 339 336 334 334 333 330 329 328 325 325 329 326 327 327 328 326 325 324 325 323 324 323 322 321 321 320 319 319 319 319 318 317
324 324 325 325 326 326 326 332 335 337 340 339 335 332 336 335 333 330 328 326 325 330 331 326 328 327 326 325 325 325 323 322 322 321 322 321 320 319 319 319 319 318 316
324 324 325 327 327 327 327 328 333 334 335 334 334 332 334 336 335 332 330 328 327 325 328 326 328 326 325 325 323 324 322 321 322 321 321 321 319 317 318 319 317 317 319
323 324 325 326 328 328 328 329 332 333 333 332 330 330 331 331 333 335 333 330 328 323 325 325 328 325 324 326 323 323 321 321 321 320 319 320 321 319 317 315 318 320 320
321 323 323 324 325 328 329 329 331 333 334 331 330 330 330 330 332 334 332 330 327 322 326 326 325 325 324 324 323 323 321 321 321 320 318 319 321 319 317 319 318 318 318

GFSSE_850_thetae_117.txt.gz
Theta_e
339 330 324 322 321 322 324 330 335 337 338 337 337 337 336 336 332 326 325 325 327 328 329 332 333 333 335 336 337 335 333 336 335 336 336 334 333 333 333 334 334 333 334
336 321 320 320 320 320 322 329 333 335 337 337 336 337 336 335 334 327 326 327 327 328 329 332 334 334 334 334 333 331 330 331 333 333 333 332 331 332 332 333 332 333 333
323 321 321 320 319 320 323 327 331 334 335 335 334 335 336 335 335 329 327 328 328 328 327 330 332 333 333 332 331 330 331 332 333 332 331 330 331 332 333 331 330 332 333
321 321 319 318 318 322 325 328 331 333 331 330 331 335 337 335 335 331 328 328 329 334 330 327 328 329 330 331 331 330 330 331 331 331 331 331 331 332 331 330 331 331 332
322 320 319 317 317 321 326 329 330 329 329 331 333 336 337 335 335 333 329 329 331 331 329 327 326 325 326 329 331 329 329 329 332 333 331 330 330 331 331 331 332 332 332
322 320 319 316 316 321 327 329 328 329 331 334 336 337 338 336 335 335 331 329 330 331 329 328 326 327 328 329 331 329 328 330 331 333 330 330 329 330 330 330 331 332 332
322 320 320 318 316 320 325 329 330 329 330 332 335 337 338 337 336 335 333 330 331 332 331 330 329 329 326 328 330 330 328 330 329 332 332 329 328 328 328 329 330 330 330
322 320 320 319 316 317 320 326 330 330 330 330 332 335 337 337 336 335 334 331 331 332 332 330 329 328 328 328 329 330 329 329 330 330 331 330 329 326 326 328 328 328 328
324 320 320 319 318 317 318 320 325 329 331 331 330 331 334 336 335 333 334 333 331 332 332 330 329 328 327 327 328 330 328 328 330 330 327 326 329 326 326 327 329 327 326
326 322 320 319 318 317 317 318 320 323 326 329 330 330 330 332 332 333 333 333 332 332 332 330 330 328 328 325 327 330 328 327 330 329 330 328 329 327 327 328 327 326 326
332 326 320 319 319 318 317 318 319 321 323 326 328 330 330 330 330 332 332 332 332 332 331 331 330 329 329 328 327 324 327 327 329 326 325 327 328 327 327 327 325 324 325
332 327 323 319 319 319 318 318 319 320 321 324 326 328 329 330 330 331 331 332 332 332 331 331 330 329 328 328 325 326 323 326 329 327 327 327 327 327 326 326 325 324 324
334 329 322 320 319 319 319 319 319 319 320 322 324 326 329 330 330 331 331 332 332 332 332 331 331 330 329 327 326 327 324 323 325 329 328 327 327 326 326 324 323 324 322
338 336 331 323 321 320 319 319 319 319 319 320 322 324 326 329 331 331 331 333 334 333 333 332 332 331 331 328 327 328 326 324 323 327 325 323 325 326 325 324 324 323 321
338 336 333 326 325 325 325 322 322 323 321 323 321 321 321 326 330 333 333 334 334 334 334 333 332 331 331 330 327 328 327 326 324 327 324 324 325 326 325 324 324 322 322
337 336 335 332 327 325 326 327 326 328 331 332 331 324 324 326 331 333 334 334 334 334 334 334 332 331 330 329 327 328 327 327 326 325 325 324 326 326 324 324 324 323 321
325 336 338 336 334 333 331 332 331 329 336 338 335 333 328 330 332 334 334 335 334 333 333 332 332 331 330 330 327 327 327 326 327 326 326 324 324 324 323 323 322 321 320
322 324 333 338 337 336 335 335 335 332 336 338 338 335 330 329 333 334 334 334 333 332 332 331 331 331 330 329 328 327 327 326 327 327 326 325 324 324 323 321 320 320 319
321 323 326 334 337 337 336 336 336 335 338 339 339 338 337 332 333 333 333 334 334 333 332 331 331 331 330 329 328 328 326 326 326 326 325 325 324 323 321 320 319 319 319
321 322 324 328 333 335 337 337 336 335 339 339 337 337 338 336 333 335 335 335 334 332 331 330 331 331 331 329 328 327 326 326 326 325 324 325 323 321 320 319 318 319 319
321 321 322 327 335 337 339 340 338 332 332 339 339 337 335 337 336 336 336 337 335 332 329 329 330 333 330 329 328 328 327 326 325 325 325 325 322 320 320 319 318 317 318
323 323 325 332 337 338 338 338 336 331 330 334 339 338 336 335 336 333 339 337 337 332 332 329 328 329 330 329 327 326 326 326 325 324 325 324 322 320 319 319 319 318 318
323 322 322 324 327 328 326 328 334 336 336 336 342 339 338 336 335 334 331 337 336 331 331 330 331 327 327 325 327 326 324 324 324 324 324 323 321 319 319 319 318 318 317
322 322 323 324 324 326 330 332 327 328 328 331 335 339 338 336 334 332 332 332 335 330 328 326 327 327 327 327 325 325 324 323 323 323 323 323 321 320 319 317 318 317 318
323 324 324 325 325 324 326 328 329 327 329 333 333 338 339 335 332 333 332 332 331 328 328 327 325 324 325 327 326 324 324 324 323 322 322 322 321 321 319 319 318 318 317
324 324 324 324 323 324 325 327 328 331 331 332 334 334 334 330 330 331 332 331 331 329 329 327 324 325 323 325 324 324 323 323 323 322 321 322 321 320 318 317 318 318 317

GFSSE_850_thetae_120.txt.gz
Theta_e
335 325 327 326 326 327 328 329 334 337 337 336 336 336 336 332 327 325 325 325 327 328 330 330 332 333 335 337 336 334 336 335 334 335 335 334 334 334 334 334 333 333 334
337 329 324 323 323 323 324 328 333 336 337 336 336 336 336 334 328 326 326 326 327 328 329 331 332 333 333 333 332 332 332 333 334 334 333 333 332 332 333 333 333 333 333
329 322 320 320 321 322 323 327 330 335 336 336 336 336 335 335 330 327 327 326 327 327 328 330 331 332 332 331 330 330 331 332 332 332 332 330 330 332 332 332 332 333 333
322 321 321 320 320 320 322 325 330 334 335 334 335 336 335 335 332 327 328 327 329 328 326 326 327 328 330 330 330 329 329 330 332 331 330 329 331 331 331 330 332 332 333
322 320 319 318 318 319 322 327 331 333 332 331 332 336 335 335 334 329 328 328 330 330 328 326 327 329 330 330 330 328 329 330 331 331 329 329 330 330 330 331 331 331 332
321 319 317 317 317 319 323 328 330 328 328 330 333 336 336 335 335 332 329 329 330 329 329 326 326 328 330 331 330 329 329 329 330 331 330 330 328 330 330 330 331 331 332
320 318 316 316 317 319 324 327 328 328 330 332 334 336 337 336 336 335 331 329 330 330 330 328 329 328 327 331 330 328 329 328 330 331 329 330 328 328 328 329 331 332 331
321 319 317 316 317 318 323 328 329 329 330 332 334 336 337 337 336 335 333 330 330 331 331 330 329 328 328 329 331 329 329 328 328 330 330 329 328 328 327 328 329 330 329
321 319 319 316 316 317 320 325 329 330 330 331 332 334 335 336 336 334 334 332 330 331 331 330 329 328 328 327 330 329 329 329 329 330 331 327 328 327 326 326 327 328 327
321 319 319 318 316 316 318 321 324 328 330 330 330 331 333 333 334 333 333 333 331 331 331 330 329 329 328 326 330 330 329 328 329 330 329 324 323 328 326 326 328 327 326
322 320 319 319 318 316 317 318 320 322 325 328 329 330 330 331 331 331 331 333 332 331 331 331 330 329 328 326 327 329 329 327 327 329 327 323 328 328 327 327 326 325 326
326 321 319 319 319 317 317 317 318 319 321 322 324 327 329 330 330 330 331 332 332 331 331 331 330 330 329 328 328 326 327 327 327 327 327 323 327 327 327 327 322 324 325
326 325 322 319 319 318 318 317 318 318 319 320 320 323 326 329 329 330 331 331 332 331 331 331 331 330 330 329 328 325 326 325 327 327 326 325 326 327 325 325 322 322 323
327 326 325 321 319 319 319 318 318 318 318 319 319 321 323 326 329 330 330 331 331 331 331 331 331 331 330 330 328 326 326 326 325 325 326 326 326 327 326 325 322 322 322
333 331 326 324 321 319 319 319 319 319 319 319 320 320 321 323 325 327 330 330 332 332 332 332 332 331 331 331 330 327 327 326 324 326 326 325 324 323 323 325 323 324 323
335 334 333 331 325 321 321 320 319 319 319 319 319 320 321 321 323 324 327 330 332 333 333 333 333 332 331 331 331 329 327 327 326 324 326 324 324 325 325 325 325 324 322
336 335 335 333 332 325 323 322 322 322 322 322 323 326 322 322 323 326 328 330 332 333 333 334 334 334 332 330 330 329 327 328 327 326 325 326 325 324 325 327 325 324 323
328 336 336 336 335 332 327 326 326 326 325 326 325 331 333 330 326 329 332 332 333 334 334 333 332 333 331 329 329 329 327 327 327 326 327 325 324 324 324 324 323 323 322
322 322 325 335 336 335 334 333 332 331 329 327 329 333 334 335 330 330 332 334 334 334 333 332 331 330 330 330 330 329 328 327 327 326 326 326 326 325 324 323 322 321 320
321 320 321 323 331 334 336 336 336 335 334 331 330 333 336 336 335 333 332 334 336 334 333 332 332 331 331 331 330 329 328 327 327 325 326 326 325 324 324 323 320 320 319
320 321 321 321 327 334 337 337 338 338 337 335 333 332 335 336 337 335 332 333 336 336 334 333 332 332 329 329 328 329 328 328 326 326 326 326 325 324 323 322 320 319 318
321 321 321 321 325 331 334 337 338 338 338 336 335 332 336 337 337 337 335 333 333 334 335 334 332 330 329 328 328 327 327 326 324 326 326 325 325 324 323 321 319 318 318
321 321 321 322 323 330 334 337 338 337 334 336 338 336 334 337 338 337 336 335 334 334 333 332 331 329 328 327 326 326 324 324 323 325 324 325 324 324 321 320 320 318 317
323 324 325 334 339 338 339 338 337 334 331 330 330 333 329 332 336 337 337 336 334 333 332 332 331 328 327 325 324 326 325 324 324 324 325 325 324 323 321 320 319 319 319
326 326 327 330 332 332 332 332 333 338 337 332 329 329 329 336 336 334 334 333 332 331 332 331 330 329 325 325 323 325 323 324 323 323 323 324 324 323 320 319 319 318 318
324 325 325 325 325 324 325 326 327 329 332 337 337 335 333 335 336 332 333 333 330 331 330 330 331 328 325 324 323 324 324 324 324 323 323 323 323 323 321 320 319 317 318

GFSSE_850_thetae_123.txt.gz
Theta_e
332 337 337 337 336 333 332 333 335 335 335 336 336 336 332 327 327 329 328 326 328 329 330 331 333 336 338 336 336 336 337 335 333 332 334 334 334 334 333 333 333 334 334
327 331 332 334 333 332 331 332 334 336 335 335 336 336 333 327 325 325 325 326 327 329 329 330 332 334 335 333 332 332 333 332 333 334 334 334 334 333 331 333 333 333 333
328 327 329 328 329 331 330 331 335 336 336 335 335 335 334 328 326 326 325 326 327 328 329 331 332 331 331 331 330 329 331 332 332 332 332 332 332 332 332 332 332 332 333
331 326 324 325 326 327 329 330 333 336 336 335 335 335 335 330 327 327 326 327 327 328 329 330 330 330 330 329 329 330 330 331 331 331 330 329 329 331 331 331 332 332 333
326 321 320 322 324 325 326 327 330 334 335 335 335 335 335 333 328 328 328 328 329 327 326 327 328 329 330 329 328 328 328 329 331 330 329 330 329 330 330 331 331 332 332
321 321 321 320 321 323 325 326 329 333 334 334 333 335 335 335 331 328 328 329 329 329 326 326 326 328 329 330 328 327 327 330 331 330 330 329 329 331 330 329 330 331 331
322 321 319 318 320 322 324 326 329 330 330 330 332 335 335 335 334 331 329 329 330 329 328 326 327 327 329 330 328 328 328 329 329 329 330 329 328 329 328 329 330 331 332
322 319 317 317 320 322 325 327 327 327 327 329 333 336 336 336 335 333 330 329 330 330 329 328 328 326 329 330 329 328 328 327 329 330 328 328 329 329 327 328 330 331 330
320 318 316 317 320 323 325 327 327 328 329 331 333 335 336 336 336 334 332 330 330 330 330 329 328 328 329 330 329 328 328 327 327 328 329 329 327 327 326 328 329 329 328
319 318 317 316 319 322 325 327 328 329 329 330 332 335 336 336 336 334 333 332 330 330 330 330 329 328 327 329 329 329 328 328 328 328 328 328 325 327 325 323 326 327 327
319 318 317 316 317 320 323 326 328 328 329 330 331 332 333 334 334 333 333 333 332 330 330 331 329 329 328 327 329 329 329 328 327 328 328 327 324 323 325 325 326 327 325
319 319 318 318 316 318 319 322 325 327 328 329 329 330 330 330 331 331 331 332 333 331 330 331 330 329 328 327 326 327 328 328 326 327 328 326 325 328 327 326 325 324 323
321 319 319 318 318 317 317 318 320 322 323 324 325 327 327 328 329 329 330 331 332 332 331 331 331 330 330 328 327 327 326 326 326 326 326 326 324 327 328 327 323 320 322
321 320 319 319 318 318 317 317 317 318 318 318 319 322 325 326 327 327 328 329 330 331 331 330 331 330 330 329 328 328 326 325 325 326 327 325 325 326 327 326 324 320 320
325 322 320 319 319 319 318 318 318 317 317 317 318 319 320 321 322 325 326 329 329 330 330 330 330 331 331 330 329 329 327 326 326 325 325 325 326 326 327 326 326 323 321
328 326 324 322 320 319 319 318 318 318 318 318 318 319 319 319 320 322 325 328 329 330 330 330 331 331 331 331 331 330 328 327 327 325 324 325 325 324 325 325 324 325 323
331 330 328 326 325 321 319 319 319 319 319 319 319 319 320 320 320 322 323 326 328 330 331 332 332 333 333 332 331 331 330 328 327 327 325 325 324 324 325 326 326 323 324
333 333 333 333 332 328 322 320 320 319 319 319 319 320 320 321 320 321 323 325 328 331 333 333 333 333 332 333 332 330 329 328 327 327 327 326 325 325 325 325 326 325 325
335 335 335 334 334 334 334 327 322 321 321 322 323 323 327 327 325 325 324 326 330 333 334 334 334 333 332 331 331 329 329 329 327 327 327 327 326 325 325 325 323 324 323
335 336 336 336 335 335 336 335 330 328 327 328 328 329 332 333 334 332 329 329 332 334 335 335 334 333 331 330 330 330 330 329 328 327 326 326 326 326 326 326 323 323 322
320 322 331 328 323 329 336 338 336 333 332 333 333 333 335 336 336 335 334 332 333 335 334 335 334 333 332 330 328 328 328 328 328 328 327 325 328 325 326 325 324 322 321
321 320 320 320 320 321 326 330 337 336 335 335 335 335 333 337 337 336 336 336 334 335 335 333 333 332 330 329 327 326 325 326 327 325 327 324 327 326 326 325 323 322 320
320 321 320 320 320 320 323 332 338 339 338 337 337 335 334 335 337 338 336 336 336 335 334 332 332 332 330 329 327 326 327 325 324 323 324 323 325 326 325 325 323 321 319
318 319 319 319 321 324 330 338 338 339 337 336 335 332 332 330 335 337 337 337 336 335 333 331 332 331 330 329 328 326 325 324 323 323 322 322 324 325 325 325 322 320 318
321 323 327 329 332 335 336 339 339 337 335 335 333 329 330 331 333 336 337 336 333 334 334 332 331 332 331 329 327 326 324 324 326 323 323 323 323 324 324 324 321 320 319
326 330 330 330 328 332 336 337 336 334 335 334 333 335 336 333 331 333 335 335 331 332 333 332 329 330 332 330 328 325 325 322 323 323 322 323 323 324 324 325 321 320 319

GFSSE_850_thetae_126.txt.gz
Theta_e
333 337 338 338 338 337 335 334 334 333 333 334 334 331 328 330 332 336 329 326 328 330 332 333 336 337 336 336 335 336 337 335 334 333 334 334 334 334 333 332 333 333 333
328 336 338 338 338 336 335 335 335 334 334 335 335 332 328 327 328 328 325 327 327 330 330 332 333 335 334 333 333 334 333 332 332 331 331 331 332 334 333 332 332 333 333
327 333 337 336 335 335 335 335 335 335 334 335 335 333 328 326 325 325 326 327 327 329 330 331 332 332 331 330 330 329 330 332 332 332 333 333 332 333 332 328 332 332 333
326 330 334 334 333 333 334 335 335 335 335 335 335 334 328 326 326 326 326 326 326 328 329 330 330 329 328 329 329 329 329 330 331 331 330 330 330 331 331 332 332 332 332
327 328 331 329 330 331 331 334 335 336 335 334 335 335 330 327 327 326 327 327 326 326 326 327 327 327 328 328 328 327 328 330 330 330 329 329 329 330 330 330 331 332 332
329 327 326 325 327 328 328 331 334 335 335 335 334 335 333 328 328 327 328 329 328 327 324 324 325 326 327 328 327 327 327 329 329 329 328 329 328 330 330 329 331 331 331
326 323 322 322 323 325 325 327 331 334 335 334 334 334 335 331 329 328 328 329 329 327 323 324 325 325 326 327 327 327 326 328 329 329 329 328 329 329 329 329 330 331 331
322 321 321 322 321 321 323 326 329 333 333 333 332 334 335 334 331 329 329 329 329 329 325 327 327 325 326 326 327 327 326 327 328 328 327 327 328 329 327 328 330 331 332
321 321 320 319 319 319 323 326 329 331 331 330 331 334 335 335 334 331 329 329 330 329 329 328 327 325 326 326 327 327 327 326 327 327 328 328 329 328 326 327 329 329 330
321 320 318 318 320 320 323 328 329 327 327 329 332 335 335 335 335 333 330 329 330 330 330 328 327 327 328 328 327 327 327 327 326 327 329 329 326 327 326 327 328 325 327
320 318 317 318 320 324 325 326 327 328 329 331 333 335 336 335 335 334 332 330 330 330 330 330 329 328 327 327 328 327 327 327 327 326 328 328 326 326 327 326 327 325 326
320 318 317 318 320 323 326 326 327 329 331 332 332 333 334 335 334 334 332 332 331 331 330 330 330 329 328 327 327 327 327 328 327 325 327 327 326 324 326 326 327 326 326
321 318 317 317 318 321 324 326 327 328 329 330 331 330 331 332 333 332 332 331 331 331 331 330 331 330 329 328 327 326 327 327 327 326 325 326 325 324 328 325 326 326 322
321 319 318 317 317 319 321 323 324 325 326 327 328 329 329 329 329 330 330 330 329 330 330 330 331 330 330 329 328 327 327 327 325 325 325 325 325 324 327 327 324 324 321
321 319 318 318 317 317 318 319 319 320 322 322 323 324 325 325 325 327 328 328 328 328 329 330 330 330 330 330 329 328 328 327 325 326 325 326 324 324 327 327 326 324 322
321 320 319 318 318 317 317 317 317 317 317 318 319 319 320 321 322 323 325 326 327 327 328 330 330 330 330 330 330 329 329 328 326 326 326 325 324 324 325 327 327 325 324
322 321 320 319 318 318 318 317 317 317 317 317 317 318 319 319 320 322 324 325 326 327 328 330 331 331 331 331 331 330 330 330 328 327 326 325 325 325 325 324 327 326 323
329 324 322 320 319 319 318 318 318 318 318 318 318 318 319 320 321 322 324 325 327 328 328 330 331 331 332 332 332 332 331 330 329 328 327 326 326 325 324 324 325 326 327
334 332 329 327 324 323 321 319 319 319 319 319 319 320 320 321 322 323 324 324 327 329 328 330 332 333 333 333 332 332 331 329 329 328 327 326 327 326 325 324 325 325 325
335 335 333 332 331 329 328 325 322 320 320 320 320 320 321 321 321 324 323 324 326 329 330 331 333 334 333 333 333 332 331 329 329 328 327 326 327 327 326 325 325 325 322
332 335 335 334 334 334 334 333 330 326 323 321 321 321 323 325 328 329 330 330 328 329 331 332 336 334 332 332 330 328 326 326 326 326 327 327 326 326 325 324 324 325 323
320 324 331 335 335 335 335 335 335 335 334 328 325 326 329 331 332 333 333 334 332 331 332 332 334 333 332 331 329 327 325 327 324 326 325 324 325 325 325 325 325 325 322
319 322 328 330 329 333 336 337 338 338 337 335 332 332 333 334 334 334 334 335 335 335 334 332 333 332 330 330 329 328 326 324 323 322 324 323 323 322 324 323 325 325 323
319 319 319 320 321 324 335 335 336 336 337 337 336 335 336 335 334 332 332 332 334 336 336 335 333 331 331 331 331 329 328 325 324 323 322 321 322 322 322 323 325 325 324
317 318 318 317 318 324 332 334 335 336 336 337 337 336 335 334 333 329 329 333 335 337 334 334 333 332 329 330 331 330 328 327 326 326 323 323 322 322 323 324 324 323 322
321 322 322 320 319 323 326 335 338 338 336 334 334 333 333 328 330 329 330 334 336 334 333 331 332 331 330 330 330 332 330 328 327 325 323 321 321 321 323 322 323 324 324